Location: Maiden
(35.5760°N, 81.2120°W)
Time: 02:00:39
(UTC-04:00)

Vanguard 2 - Pass Details

Date: 05 August 2020
Orbit: 553 x 2937 km, 32.9° (Epoch: 20 September)

Event Time Altitude Azimuth Distance (km) Brightness Sun altitude
Rises 20:33:47 0° 212° (SSW) 6,777 12.5 -2.6°
Reaches altitude 10° 20:39:10 10° 203° (SSW) 5,729 12.0 -3.6°
Maximum altitude 20:53:15 32° 149° (SSE) 3,702 10.6 -6.2°
Drops below altitude 10° 21:04:04 10° 93° (E) 4,419 10.8 -8.2°
Enters shadow 21:07:12 - 84° (E) 5,027 11.2 -8.7°
Sets 21:07:31 0° 83° (E) 5,095 - -8.8°
